| time (UTC) | temp F | wind direction | speed knots | gust knots | rain 1hr in | rain 24hr in | rain mn in | humidity % | barometer mb |
| 20260904095003 | 76 | 173 | 0.0 | 0.9 | 0.00 | 0.00 | 0.00 | 90 | 1013.6 |
| 20260904094503 | 76 | 173 | 0.0 | 0.9 | 0.00 | 0.00 | 0.00 | 90 | 1013.5 |
| 20260904094003 | 76 | 173 | 0.0 | 0.9 | 0.00 | 0.00 | 0.00 | 90 | 1013.6 |
| 20260904093503 | 76 | 173 | 0.0 | 0.9 | 0.00 | 0.00 | 0.00 | 89 | 1013.6 |
| 20260904092003 | 76 | 173 | 0.0 | 1.7 | 0.00 | 0.00 | 0.00 | 89 | 1013.6 |
| 20260904091503 | 76 | 173 | 0.0 | 1.7 | 0.00 | 0.00 | 0.00 | 89 | 1013.6 |
| 20260904091003 | 76 | 173 | 0.0 | 0.9 | 0.00 | 0.00 | 0.00 | 89 | 1013.6 |
| 20260904090502 | 76 | 173 | 0.0 | 0.9 | 0.00 | 0.00 | 0.00 | 88 | 1013.6 |
| 20260904085504 | 76 | 173 | 0.0 | 1.7 | 0.00 | 0.00 | 0.00 | 88 | 1013.5 |
| 20260904085003 | 76 | 173 | 0.0 | 0.9 | 0.00 | 0.00 | 0.00 | 88 | 1013.5 |
| 20260904084004 | 76 | 173 | 0.0 | 1.7 | 0.00 | 0.00 | 0.00 | 88 | 1013.6 |
| 20260904083503 | 76 | 173 | 0.0 | 1.7 | 0.00 | 0.00 | 0.00 | 88 | 1013.6 |
| 20260904083003 | 76 | 0 | 0.0 | 0.0 | 0.00 | 0.00 | 0.00 | 87 | 1013.5 |
| 20260904082003 | 77 | 173 | 0.0 | 1.7 | 0.00 | 0.00 | 0.00 | 87 | 1013.4 |
| 20260904081503 | 77 | 173 | 0.0 | 1.7 | 0.00 | 0.00 | 0.00 | 86 | 1013.5 |
| 20260904081003 | 77 | 172 | 0.0 | 1.7 | 0.00 | 0.00 | 0.00 | 86 | 1013.6 |
| 20260904080503 | 77 | 171 | 0.0 | 1.7 | 0.00 | 0.00 | 0.00 | 86 | 1013.6 |
| 20260904080004 | 77 | 171 | 0.0 | 1.7 | 0.00 | 0.00 | 0.00 | 86 | 1013.5 |
| 20260904075503 | 77 | 172 | 0.0 | 0.9 | 0.00 | 0.00 | 0.00 | 86 | 1013.4 |
| 20260904075004 | 77 | 171 | 0.0 | 1.7 | 0.00 | 0.00 | 0.00 | 85 | 1013.3 |
| 20260904074503 | 77 | 170 | 0.0 | 1.7 | 0.00 | 0.00 | 0.00 | 85 | 1013.2 |
| 20260904073003 | 77 | 159 | 0.0 | 0.9 | 0.00 | 0.00 | 0.00 | 85 | 1013.5 |
| 20260904072503 | 77 | 160 | 0.0 | 1.7 | 0.00 | 0.00 | 0.00 | 85 | 1013.6 |
| 20260904072003 | 77 | 156 | 0.0 | 1.7 | 0.00 | 0.00 | 0.00 | 84 | 1013.6 |
| 20260904071504 | 77 | 159 | 0.0 | 1.7 | 0.00 | 0.00 | 0.00 | 84 | 1013.6 |
| 20260904071003 | 77 | 168 | 0.0 | 1.7 | 0.00 | 0.00 | 0.00 | 84 | 1013.5 |
| 20260904070004 | 78 | 183 | 0.9 | 3.5 | 0.00 | 0.00 | 0.00 | 84 | 1013.5 |
| 20260904065504 | 78 | 184 | 0.9 | 3.5 | 0.00 | 0.00 | 0.00 | 84 | 1013.6 |
| 20260904065003 | 78 | 175 | 0.9 | 2.6 | 0.00 | 0.00 | 0.00 | 84 | 1013.7 |
| 20260904064504 | 78 | 178 | 0.9 | 2.6 | 0.00 | 0.00 | 0.00 | 83 | 1013.7 |
| 20260904064003 | 78 | 179 | 0.9 | 2.6 | 0.00 | 0.00 | 0.00 | 83 | 1013.7 |
| 20260904063503 | 78 | 175 | 0.9 | 3.5 | 0.00 | 0.00 | 0.00 | 83 | 1013.6 |
| 20260904063004 | 78 | 175 | 0.9 | 3.5 | 0.00 | 0.00 | 0.00 | 83 | 1013.6 |
| 20260904062503 | 78 | 172 | 0.0 | 1.7 | 0.00 | 0.00 | 0.00 | 83 | 1013.6 |
| 20260904062003 | 78 | 173 | 0.0 | 1.7 | 0.00 | 0.00 | 0.00 | 82 | 1013.6 |
| 20260904061504 | 78 | 173 | 0.0 | 1.7 | 0.00 | 0.00 | 0.00 | 82 | 1013.6 |
| 20260904061003 | 78 | 170 | 0.0 | 1.7 | 0.00 | 0.00 | 0.00 | 82 | 1013.7 |
| 20260904060503 | 78 | 177 | 0.0 | 1.7 | 0.00 | 0.00 | 0.00 | 82 | 1013.7 |
| 20260904060004 | 78 | 185 | 0.9 | 2.6 | 0.00 | 0.00 | 0.00 | 82 | 1013.6 |
| 20260904055504 | 78 | 190 | 0.9 | 2.6 | 0.00 | 0.00 | 0.00 | 81 | 1013.6 |
| 20260904055004 | 78 | 187 | 0.9 | 2.6 | 0.00 | 0.00 | 0.00 | 81 | 1013.7 |
| 20260904054504 | 78 | 183 | 0.9 | 2.6 | 0.00 | 0.00 | 0.00 | 81 | 1013.7 |
| 20260904054003 | 78 | 172 | 0.0 | 2.6 | 0.00 | 0.00 | 0.00 | 81 | 1013.6 |
| 20260904053504 | 78 | 191 | 0.0 | 2.6 | 0.00 | 0.00 | 0.00 | 81 | 1013.5 |
| 20260904053003 | 78 | 193 | 0.9 | 2.6 | 0.00 | 0.00 | 0.00 | 81 | 1013.5 |
| 20260904052501 | 78 | 171 | 0.9 | 2.6 | 0.00 | 0.00 | 0.00 | 80 | 1013.5 |
| 20260904052001 | 78 | 179 | 0.9 | 2.6 | 0.00 | 0.00 | 0.00 | 80 | 1013.6 |
| 20260904051501 | 78 | 194 | 0.0 | 2.6 | 0.00 | 0.00 | 0.00 | 80 | 1013.6 |
| 20260904051001 | 79 | 199 | 0.0 | 2.6 | 0.00 | 0.00 | 0.00 | 80 | 1013.6 |
| 20260904050501 | 79 | 199 | 0.0 | 2.6 | 0.00 | 0.00 | 0.00 | 80 | 1013.5 |
| 20260904050002 | 79 | 200 | 0.0 | 2.6 | 0.00 | 0.00 | 0.00 | 80 | 1013.6 |
| 20260904045502 | 79 | 201 | 0.0 | 2.6 | 0.00 | 0.00 | 0.00 | 79 | 1013.6 |
| 20260904045001 | 79 | 207 | 0.0 | 2.6 | 0.00 | 0.00 | 0.00 | 79 | 1013.6 |
| 20260904044501 | 79 | 187 | 0.9 | 2.6 | 0.00 | 0.00 | 0.00 | 79 | 1013.7 |
| 20260904042501 | 80 | 174 | 0.9 | 3.5 | 0.00 | 0.00 | 0.00 | 78 | 1013.7 |
| 20260904042001 | 80 | 170 | 0.9 | 3.5 | 0.00 | 0.00 | 0.00 | 78 | 1013.8 |
| 20260904041501 | 80 | 175 | 0.9 | 3.5 | 0.00 | 0.00 | 0.00 | 78 | 1013.8 |
| 20260904041001 | 80 | 174 | 0.9 | 3.5 | 0.00 | 0.00 | 0.00 | 77 | 1013.8 |
| 20260904040501 | 80 | 171 | 0.9 | 2.6 | 0.00 | 0.00 | 0.00 | 77 | 1013.7 |
| 20260904040002 | 80 | 182 | 0.9 | 2.6 | 0.00 | 0.00 | 0.00 | 77 | 1013.7 |
| 20260904035501 | 80 | 177 | 0.9 | 2.6 | 0.00 | 0.00 | 0.00 | 77 | 1013.7 |
| 20260904035001 | 80 | 176 | 0.9 | 2.6 | 0.00 | 0.00 | 0.00 | 77 | 1013.7 |
| 20260904034001 | 80 | 179 | 0.0 | 2.6 | 0.00 | 0.00 | 0.00 | 77 | 1013.6 |
| 20260904033001 | 81 | 166 | 0.9 | 3.5 | 0.00 | 0.00 | 0.00 | 76 | 1013.8 |
| 20260904032501 | 81 | 172 | 0.9 | 4.3 | 0.00 | 0.00 | 0.00 | 76 | 1013.8 |
| 20260904032001 | 81 | 175 | 1.7 | 4.3 | 0.00 | 0.00 | 0.00 | 76 | 1013.7 |
| 20260904030501 | 81 | 170 | 1.7 | 7.0 | 0.00 | 0.00 | 0.00 | 76 | 1013.7 |
| 20260904030002 | 81 | 171 | 1.7 | 7.0 | 0.00 | 0.00 | 0.00 | 76 | 1013.7 |
| 20260904025501 | 82 | 173 | 1.7 | 6.1 | 0.00 | 0.00 | 0.00 | 76 | 1013.6 |
| 20260904025001 | 82 | 170 | 1.7 | 6.1 | 0.00 | 0.00 | 0.00 | 76 | 1013.6 |
| 20260904024502 | 82 | 162 | 0.9 | 5.2 | 0.00 | 0.00 | 0.00 | 76 | 1013.5 |
| 20260904024002 | 82 | 165 | 0.9 | 5.2 | 0.00 | 0.00 | 0.00 | 76 | 1013.4 |
| 20260904023501 | 82 | 173 | 1.7 | 5.2 | 0.00 | 0.00 | 0.00 | 76 | 1013.2 |
| 20260904023001 | 82 | 171 | 0.9 | 6.1 | 0.00 | 0.00 | 0.00 | 76 | 1013.2 |
| 20260904022501 | 82 | 172 | 1.7 | 6.1 | 0.00 | 0.00 | 0.00 | 76 | 1012.9 |
| 20260904022001 | 82 | 181 | 1.7 | 6.1 | 0.00 | 0.00 | 0.00 | 76 | 1012.8 |
| 20260904021001 | 83 | 173 | 1.7 | 4.3 | 0.00 | 0.00 | 0.00 | 78 | 1012.7 |
| 20260904020501 | 83 | 173 | 1.7 | 4.3 | 0.00 | 0.00 | 0.00 | 78 | 1012.7 |
| 20260904020001 | 83 | 166 | 0.9 | 4.3 | 0.00 | 0.00 | 0.00 | 77 | 1012.7 |
| 20260904015501 | 83 | 165 | 1.7 | 4.3 | 0.00 | 0.00 | 0.00 | 76 | 1012.5 |
| 20260904015001 | 83 | 168 | 1.7 | 8.7 | 0.00 | 0.00 | 0.00 | 76 | 1012.5 |
| 20260904014501 | 84 | 167 | 1.7 | 8.7 | 0.00 | 0.00 | 0.00 | 75 | 1012.4 |
| 20260904014002 | 84 | 173 | 1.7 | 7.0 | 0.00 | 0.00 | 0.00 | 75 | 1012.4 |
| 20260904013501 | 84 | 175 | 2.6 | 5.2 | 0.00 | 0.00 | 0.00 | 75 | 1012.3 |
| 20260904013001 | 84 | 174 | 1.7 | 7.0 | 0.00 | 0.00 | 0.00 | 75 | 1012.3 |
| 20260904012502 | 84 | 173 | 1.7 | 7.0 | 0.00 | 0.00 | 0.00 | 75 | 1012.2 |
| 20260904012002 | 85 | 170 | 1.7 | 6.1 | 0.00 | 0.00 | 0.00 | 75 | 1012.1 |
| 20260904011501 | 85 | 169 | 1.7 | 7.0 | 0.00 | 0.00 | 0.00 | 74 | 1012.0 |
| 20260904011001 | 85 | 167 | 1.7 | 7.0 | 0.00 | 0.00 | 0.00 | 74 | 1012.0 |
| 20260904010001 | 86 | 177 | 2.6 | 6.1 | 0.00 | 0.00 | 0.00 | 74 | 1011.9 |
| 20260904004502 | 86 | 160 | 1.7 | 6.1 | 0.00 | 0.00 | 0.00 | 72 | 1012.0 |
| 20260904004001 | 86 | 162 | 1.7 | 7.0 | 0.00 | 0.00 | 0.00 | 72 | 1012.0 |
| 20260904003501 | 87 | 164 | 1.7 | 7.8 | 0.00 | 0.00 | 0.00 | 71 | 1012.0 |
| 20260904003001 | 87 | 163 | 1.7 | 7.8 | 0.00 | 0.00 | 0.00 | 70 | 1011.8 |
| 20260904002501 | 88 | 163 | 1.7 | 7.0 | 0.00 | 0.00 | 0.00 | 69 | 1011.9 |
| 20260904001501 | 88 | 161 | 1.7 | 6.1 | 0.00 | 0.00 | 0.00 | 68 | 1011.9 |
| 20260904001001 | 89 | 163 | 2.6 | 7.8 | 0.00 | 0.00 | 0.00 | 68 | 1011.8 |
| 20260904000502 | 89 | 160 | 3.5 | 7.8 | 0.00 | 0.00 | 0.00 | 67 | 1011.8 |
| 20260904000002 | 89 | 151 | 2.6 | 7.8 | 0.00 | 0.00 | 0.00 | 66 | 1011.8 |
| 20260903235501 | 90 | 156 | 2.6 | 6.1 | 0.00 | 0.00 | 0.00 | 65 | 1011.8 |
| 20260903235002 | 90 | 162 | 2.6 | 7.0 | 0.00 | 0.00 | 0.00 | 65 | 1011.7 |
| 20260903234502 | 90 | 154 | 2.6 | 7.0 | 0.00 | 0.00 | 0.00 | 65 | 1011.6 |
| 20260903234001 | 90 | 156 | 2.6 | 7.0 | 0.00 | 0.00 | 0.00 | 65 | 1011.7 |
| 20260903233501 | 90 | 160 | 2.6 | 7.0 | 0.00 | 0.00 | 0.00 | 65 | 1011.7 |
| 20260903233001 | 90 | 157 | 2.6 | 7.0 | 0.00 | 0.00 | 0.00 | 65 | 1011.6 |
| 20260903232501 | 91 | 159 | 1.7 | 7.0 | 0.00 | 0.00 | 0.00 | 65 | 1011.6 |
| 20260903232001 | 91 | 166 | 1.7 | 7.0 | 0.00 | 0.00 | 0.00 | 65 | 1011.5 |
| 20260903231501 | 90 | 164 | 2.6 | 8.7 | 0.00 | 0.00 | 0.00 | 66 | 1011.6 |
| 20260903231001 | 91 | 155 | 2.6 | 8.7 | 0.00 | 0.00 | 0.00 | 66 | 1011.6 |
| 20260903230501 | 91 | 157 | 2.6 | 7.8 | 0.00 | 0.00 | 0.00 | 66 | 1011.5 |
| 20260903230002 | 91 | 161 | 2.6 | 8.7 | 0.00 | 0.00 | 0.00 | 67 | 1011.6 |
| 20260903225002 | 91 | 153 | 2.6 | 7.8 | 0.00 | 0.00 | 0.00 | 67 | 1011.5 |
| 20260903224502 | 91 | 144 | 2.6 | 7.8 | 0.00 | 0.00 | 0.00 | 66 | 1011.5 |
| 20260903224001 | 92 | 157 | 2.6 | 7.8 | 0.00 | 0.00 | 0.00 | 65 | 1011.5 |
| 20260903223501 | 92 | 159 | 2.6 | 7.8 | 0.00 | 0.00 | 0.00 | 65 | 1011.5 |
| 20260903223002 | 92 | 138 | 1.7 | 6.1 | 0.00 | 0.00 | 0.00 | 64 | 1011.5 |
| 20260903222502 | 93 | 117 | 0.9 | 6.1 | 0.00 | 0.00 | 0.00 | 64 | 1011.4 |
| 20260903221501 | 93 | 156 | 1.7 | 5.2 | 0.00 | 0.00 | 0.00 | 63 | 1011.4 |
| 20260903221002 | 93 | 171 | 2.6 | 9.6 | 0.00 | 0.00 | 0.00 | 62 | 1011.4 |
| 20260903220502 | 92 | 176 | 3.5 | 9.6 | 0.00 | 0.00 | 0.00 | 62 | 1011.5 |
| 20260903220002 | 93 | 174 | 2.6 | 7.8 | 0.00 | 0.00 | 0.00 | 61 | 1011.5 |
| 20260903215501 | 93 | 161 | 1.7 | 6.1 | 0.00 | 0.00 | 0.00 | 62 | 1011.6 |
| 20260903215002 | 93 | 166 | 2.6 | 7.0 | 0.00 | 0.00 | 0.00 | 62 | 1011.7 |
| 20260903214502 | 93 | 160 | 2.6 | 7.0 | 0.00 | 0.00 | 0.00 | 62 | 1011.7 |
| 20260903214001 | 93 | 168 | 2.6 | 8.7 | 0.00 | 0.00 | 0.00 | 62 | 1011.8 |
| 20260903213001 | 94 | 174 | 1.7 | 8.7 | 0.00 | 0.00 | 0.00 | 61 | 1011.8 |
| 20260903212502 | 93 | 187 | 2.6 | 7.0 | 0.00 | 0.00 | 0.00 | 62 | 1011.8 |
| 20260903212002 | 93 | 190 | 2.6 | 7.0 | 0.00 | 0.00 | 0.00 | 62 | 1011.9 |
| 20260903211502 | 93 | 170 | 2.6 | 7.0 | 0.00 | 0.00 | 0.00 | 63 | 1011.9 |
| 20260903210502 | 92 | 179 | 2.6 | 9.6 | 0.00 | 0.00 | 0.00 | 64 | 1012.1 |
| 20260903205502 | 91 | 187 | 3.5 | 8.7 | 0.00 | 0.00 | 0.00 | 65 | 1012.2 |
| 20260903204502 | 91 | 179 | 3.5 | 8.7 | 0.00 | 0.00 | 0.00 | 65 | 1012.2 |
| 20260903204002 | 91 | 185 | 3.5 | 8.7 | 0.00 | 0.00 | 0.00 | 66 | 1012.3 |
| 20260903203502 | 90 | 184 | 3.5 | 10.4 | 0.00 | 0.00 | 0.00 | 66 | 1012.5 |
| 20260903203002 | 90 | 181 | 3.5 | 10.4 | 0.00 | 0.00 | 0.00 | 66 | 1012.5 |
| 20260903202002 | 90 | 191 | 3.5 | 9.6 | 0.00 | 0.00 | 0.00 | 67 | 1012.8 |
| 20260903201002 | 90 | 182 | 4.3 | 8.7 | 0.00 | 0.00 | 0.00 | 67 | 1012.7 |
| 20260903200502 | 89 | 184 | 3.5 | 8.7 | 0.00 | 0.00 | 0.00 | 69 | 1012.7 |
| 20260903200002 | 89 | 179 | 3.5 | 10.4 | 0.00 | 0.00 | 0.00 | 69 | 1012.8 |
| 20260903195502 | 88 | 165 | 3.5 | 10.4 | 0.00 | 0.00 | 0.00 | 69 | 1012.8 |
| 20260903195002 | 88 | 168 | 4.3 | 9.6 | 0.00 | 0.00 | 0.00 | 70 | 1012.8 |
| 20260903194002 | 87 | 178 | 4.3 | 9.6 | 0.00 | 0.00 | 0.00 | 71 | 1012.8 |
| 20260903193502 | 88 | 177 | 4.3 | 9.6 | 0.00 | 0.00 | 0.00 | 70 | 1012.9 |
| 20260903193002 | 87 | 174 | 4.3 | 9.6 | 0.00 | 0.00 | 0.00 | 71 | 1013.0 |
| 20260903192502 | 87 | 181 | 4.3 | 9.6 | 0.00 | 0.00 | 0.00 | 71 | 1013.2 |
| 20260903192002 | 87 | 184 | 4.3 | 9.6 | 0.00 | 0.00 | 0.00 | 71 | 1013.2 |
| 20260903191502 | 87 | 177 | 3.5 | 9.6 | 0.00 | 0.00 | 0.00 | 72 | 1013.4 |
| 20260903191002 | 86 | 171 | 3.5 | 9.6 | 0.00 | 0.00 | 0.00 | 72 | 1013.5 |
| 20260903190502 | 86 | 172 | 4.3 | 9.6 | 0.00 | 0.00 | 0.00 | 73 | 1013.6 |
| 20260903190002 | 86 | 186 | 4.3 | 10.4 | 0.00 | 0.00 | 0.00 | 73 | 1013.8 |
| 20260903185003 | 87 | 166 | 4.3 | 9.6 | 0.00 | 0.00 | 0.00 | 72 | 1013.8 |
| 20260903184502 | 87 | 167 | 4.3 | 9.6 | 0.00 | 0.00 | 0.00 | 72 | 1013.7 |
| 20260903184002 | 87 | 166 | 4.3 | 9.6 | 0.00 | 0.00 | 0.00 | 72 | 1013.8 |
| 20260903183501 | 87 | 172 | 4.3 | 10.4 | 0.00 | 0.00 | 0.00 | 73 | 1013.8 |
| 20260903183003 | 86 | 177 | 3.5 | 10.4 | 0.00 | 0.00 | 0.00 | 73 | 1013.8 |
| 20260903182501 | 86 | 179 | 3.5 | 9.6 | 0.00 | 0.00 | 0.00 | 75 | 1014.0 |
| 20260903182003 | 86 | 179 | 3.5 | 9.6 | 0.00 | 0.00 | 0.00 | 74 | 1013.9 |
| 20260903181503 | 85 | 177 | 4.3 | 10.4 | 0.00 | 0.00 | 0.00 | 75 | 1014.0 |
| 20260903181002 | 85 | 182 | 5.2 | 12.2 | 0.00 | 0.00 | 0.00 | 75 | 1014.0 |
| 20260903180503 | 85 | 184 | 4.3 | 12.2 | 0.00 | 0.00 | 0.00 | 76 | 1014.1 |
| 20260903180003 | 84 | 186 | 4.3 | 10.4 | 0.00 | 0.00 | 0.00 | 77 | 1014.2 |
| 20260903175503 | 84 | 186 | 5.2 | 10.4 | 0.00 | 0.00 | 0.00 | 78 | 1014.2 |
| 20260903175002 | 84 | 178 | 4.3 | 12.2 | 0.00 | 0.00 | 0.00 | 78 | 1014.3 |
| 20260903174502 | 84 | 171 | 4.3 | 12.2 | 0.00 | 0.00 | 0.00 | 78 | 1014.3 |
| 20260903174002 | 84 | 175 | 3.5 | 9.6 | 0.00 | 0.00 | 0.00 | 79 | 1014.3 |
| 20260903173502 | 83 | 176 | 3.5 | 9.6 | 0.00 | 0.00 | 0.00 | 79 | 1014.4 |
| 20260903172502 | 83 | 183 | 5.2 | 13.0 | 0.00 | 0.00 | 0.00 | 80 | 1014.6 |
| 20260903172003 | 82 | 182 | 5.2 | 13.9 | 0.00 | 0.00 | 0.00 | 81 | 1014.5 |
| 20260903171002 | 82 | 184 | 5.2 | 13.0 | 0.00 | 0.00 | 0.00 | 82 | 1014.5 |
| 20260903170003 | 82 | 179 | 4.3 | 12.2 | 0.00 | 0.00 | 0.00 | 83 | 1014.6 |
| 20260903165003 | 82 | 169 | 3.5 | 10.4 | 0.00 | 0.00 | 0.00 | 83 | 1014.5 |
| 20260903164503 | 82 | 164 | 3.5 | 11.3 | 0.00 | 0.00 | 0.00 | 83 | 1014.4 |
| 20260903164002 | 82 | 160 | 2.6 | 11.3 | 0.00 | 0.00 | 0.00 | 83 | 1014.4 |
| 20260903163002 | 82 | 170 | 3.5 | 10.4 | 0.00 | 0.00 | 0.00 | 84 | 1014.4 |
| 20260903162502 | 82 | 171 | 3.5 | 10.4 | 0.00 | 0.00 | 0.00 | 83 | 1014.4 |
| 20260903161503 | 82 | 177 | 2.6 | 7.0 | 0.00 | 0.00 | 0.00 | 83 | 1014.4 |
| 20260903161002 | 82 | 174 | 2.6 | 6.1 | 0.00 | 0.00 | 0.00 | 84 | 1014.3 |
| 20260903160502 | 82 | 176 | 2.6 | 7.0 | 0.00 | 0.00 | 0.00 | 84 | 1014.3 |
| 20260903160002 | 82 | 177 | 3.5 | 7.0 | 0.00 | 0.00 | 0.00 | 84 | 1014.2 |
| 20260903155502 | 82 | 174 | 2.6 | 7.8 | 0.00 | 0.00 | 0.00 | 84 | 1014.3 |
| 20260903155002 | 82 | 178 | 1.7 | 7.8 | 0.00 | 0.00 | 0.00 | 85 | 1014.2 |
| 20260903154502 | 82 | 175 | 2.6 | 7.8 | 0.00 | 0.00 | 0.00 | 86 | 1014.2 |
| 20260903154002 | 81 | 177 | 2.6 | 7.8 | 0.00 | 0.00 | 0.00 | 86 | 1014.1 |
| 20260903153002 | 81 | 177 | 3.5 | 8.7 | 0.00 | 0.00 | 0.00 | 87 | 1014.1 |
| 20260903152002 | 81 | 170 | 2.6 | 7.8 | 0.00 | 0.00 | 0.00 | 88 | 1014.2 |
| 20260903151002 | 80 | 169 | 2.6 | 7.8 | 0.00 | 0.00 | 0.00 | 88 | 1014.2 |
| 20260903150503 | 80 | 162 | 2.6 | 6.1 | 0.00 | 0.00 | 0.00 | 89 | 1014.2 |
| 20260903150002 | 80 | 161 | 1.7 | 5.2 | 0.00 | 0.00 | 0.00 | 89 | 1014.2 |
| 20260903145502 | 80 | 148 | 0.9 | 5.2 | 0.00 | 0.00 | 0.00 | 90 | 1014.2 |
| 20260903145003 | 80 | 150 | 1.7 | 5.2 | 0.00 | 0.00 | 0.00 | 90 | 1014.1 |
| 20260903144503 | 80 | 161 | 1.7 | 5.2 | 0.00 | 0.00 | 0.00 | 90 | 1014.2 |
| 20260903143502 | 80 | 169 | 1.7 | 7.8 | 0.00 | 0.00 | 0.00 | 90 | 1014.1 |
| 20260903143002 | 80 | 162 | 0.9 | 7.8 | 0.00 | 0.00 | 0.00 | 90 | 1014.1 |
| 20260903142503 | 80 | 159 | 1.7 | 7.0 | 0.00 | 0.00 | 0.00 | 90 | 1014.3 |
| 20260903141502 | 80 | 161 | 1.7 | 4.3 | 0.00 | 0.00 | 0.00 | 91 | 1014.2 |
| 20260903141002 | 80 | 167 | 1.7 | 6.1 | 0.00 | 0.00 | 0.00 | 92 | 1014.3 |
| 20260903140503 | 80 | 170 | 1.7 | 6.1 | 0.00 | 0.00 | 0.00 | 92 | 1014.3 |
| 20260903140003 | 79 | 172 | 0.9 | 4.3 | 0.00 | 0.00 | 0.00 | 93 | 1014.2 |
| 20260903135503 | 79 | 171 | 0.9 | 4.3 | 0.00 | 0.00 | 0.00 | 93 | 1014.3 |
| 20260903134503 | 79 | 166 | 1.7 | 5.2 | 0.00 | 0.00 | 0.00 | 93 | 1014.3 |
| 20260903133503 | 79 | 148 | 1.7 | 7.8 | 0.00 | 0.00 | 0.00 | 93 | 1014.2 |
| 20260903132502 | 79 | 159 | 1.7 | 7.0 | 0.00 | 0.00 | 0.00 | 93 | 1014.2 |
| 20260903132003 | 78 | 155 | 1.7 | 5.2 | 0.00 | 0.00 | 0.00 | 93 | 1014.2 |
| 20260903131002 | 78 | 132 | 0.9 | 3.5 | 0.00 | 0.00 | 0.00 | 93 | 1014.2 |
| 20260903130503 | 78 | 108 | 0.9 | 2.6 | 0.00 | 0.00 | 0.00 | 93 | 1014.1 |
| 20260903130003 | 78 | 185 | 0.9 | 3.5 | 0.00 | 0.00 | 0.00 | 93 | 1014.0 |
| 20260903125502 | 78 | 159 | 0.9 | 3.5 | 0.00 | 0.00 | 0.00 | 93 | 1013.8 |
| 20260903124502 | 78 | 161 | 1.7 | 5.2 | 0.00 | 0.00 | 0.00 | 93 | 1013.9 |
| 20260903124003 | 78 | 162 | 1.7 | 5.2 | 0.00 | 0.00 | 0.00 | 93 | 1013.8 |
| 20260903123503 | 78 | 160 | 0.9 | 4.3 | 0.00 | 0.00 | 0.00 | 94 | 1013.9 |
| 20260903123003 | 78 | 152 | 0.9 | 3.5 | 0.00 | 0.00 | 0.00 | 94 | 1014.0 |
| 20260903122002 | 77 | 166 | 0.9 | 3.5 | 0.00 | 0.00 | 0.00 | 94 | 1013.8 |
| 20260903121502 | 77 | 172 | 0.9 | 4.3 | 0.00 | 0.00 | 0.00 | 94 | 1013.8 |
| 20260903121003 | 77 | 164 | 0.9 | 5.2 | 0.00 | 0.00 | 0.00 | 94 | 1013.7 |
| 20260903120503 | 77 | 160 | 1.7 | 5.2 | 0.00 | 0.00 | 0.00 | 94 | 1013.7 |
| 20260903120002 | 77 | 160 | 1.7 | 4.3 | 0.00 | 0.00 | 0.00 | 94 | 1013.7 |
| 20260903115503 | 77 | 162 | 0.9 | 6.1 | 0.00 | 0.00 | 0.00 | 94 | 1013.7 |
| 20260903115003 | 77 | 167 | 0.9 | 6.1 | 0.00 | 0.00 | 0.00 | 94 | 1013.6 |
| 20260903114502 | 77 | 167 | 1.7 | 5.2 | 0.00 | 0.00 | 0.00 | 94 | 1013.5 |
| 20260903114003 | 77 | 172 | 0.9 | 3.5 | 0.00 | 0.00 | 0.00 | 94 | 1013.5 |
| 20260903112003 | 77 | 172 | 0.9 | 3.5 | 0.00 | 0.00 | 0.00 | 94 | 1013.5 |
| 20260903111503 | 77 | 169 | 0.0 | 1.7 | 0.00 | 0.00 | 0.00 | 94 | 1013.5 |
| 20260903111002 | 77 | 167 | 0.0 | 2.6 | 0.00 | 0.00 | 0.00 | 94 | 1013.5 |
| 20260903110503 | 77 | 161 | 0.0 | 2.6 | 0.00 | 0.00 | 0.00 | 94 | 1013.5 |
| 20260903110002 | 77 | 150 | 0.0 | 1.7 | 0.00 | 0.00 | 0.00 | 94 | 1013.5 |
| 20260903105003 | 77 | 169 | 0.0 | 0.9 | 0.00 | 0.00 | 0.00 | 94 | 1013.4 |
| 20260903104003 | 77 | 165 | 0.9 | 3.5 | 0.00 | 0.00 | 0.00 | 94 | 1013.4 |
| 20260903103503 | 77 | 166 | 0.9 | 3.5 | 0.00 | 0.00 | 0.00 | 94 | 1013.4 |
| 20260903103002 | 77 | 164 | 0.9 | 3.5 | 0.00 | 0.00 | 0.00 | 94 | 1013.3 |
| 20260903102503 | 76 | 163 | 0.0 | 2.6 | 0.00 | 0.00 | 0.00 | 94 | 1013.3 |
| 20260903102002 | 76 | 169 | 0.0 | 1.7 | 0.00 | 0.00 | 0.00 | 94 | 1013.3 |
| 20260903101003 | 76 | 168 | 0.0 | 2.6 | 0.00 | 0.00 | 0.00 | 94 | 1013.2 |
| 20260903100503 | 76 | 169 | 0.0 | 1.7 | 0.00 | 0.00 | 0.00 | 94 | 1013.2 |